Tracking 20475 objects as of 27-Feb-2020
HD Live streaming from Space Station
objects crossing your sky now

GORIZONT 32

Track GORIZONT 32 now!
GORIZONT 32 is classified as:


NORAD ID: 23880
Int'l Code: 1996-034A
Perigee: 35,751.4 km
Apogee: 35,864.0 km
Inclination: 14.4 °
Period: 1,436.8 minutes
Semi major axis: 42178 km
RCS: 17.7827 m2 (large)
Launch date: May 25, 1996
Source: Commonwealth of Independent States (former USSR) (CIS)
Launch site: TYURATAM MISSILE AND SPACE COMPLEX (TTMTR)

Telecommunications; augment television channels available to the people of Siberia.
aabbcc
Your satellite tracking list
Your tracking list is empty




NASA's NSSDC Master Catalog

Two Line Element Set (TLE):
1 23880U 96034A   20056.67196025 -.00000102 +00000-0 +00000-0 0  9996
2 23880 014.4028 013.1844 0013349 323.0636 225.5566 01.00222164086975
Source of the keplerian elements: AFSPC